User: anonymous   Login
Location: Bakhuizen
(52.8696°N, 5.4575°E)
Time: 21:58:31
(UTC+00:00)
Language:

Cosmos 1151 Rocket - Orbit

View from above orbital plane
View from above orbital plane
View from above satellite
View from above satellite

Ground track
Ground track

The orbit data is extracted from the following two-line orbital elements,

1 11672U 80005B   21212.11498145  .00000101  00000-0  83128-5 0  9990
2 11672  82.5153  98.7427 0016844   5.9690 354.1725 14.88057347226073
Epoch (UTC): 31 July 2021 02:45:34
Eccentricity: 0.0016844
inclination: 82.5153°
perigee height: 592 km
apogee height: 616 km
right ascension of ascending node: 98.7427°
argument of perigee: 5.9690°
revolutions per day: 14.88057347
mean anomaly at epoch: 354.1725°
orbit number at epoch: 22607

The dashed part of the orbit path shows where the satellite is in the earth's shadow,  

DLR